Overview Statistics Trail Chart Weather Telemetry Raw packets
 

This is the latest recevied weather packets stored in our database for station/object HP1CDW-11. If no packets are shown the sender has not sent any weather packets the latest 10 day(s).

<< 32 33 34 35 36 37 38 >>
Time Temp. Humidity Pressure Rain* Wind** Luminosity Snow
1788197766 31.11° C 58% 1011.1 hPa - - - -
1788197166 31.11° C 58% 1011.1 hPa - - - -
1788196565 31.11° C 57% 1011.2 hPa - - - -
1788195965 31.67° C 56% 1011.6 hPa - - - -
1788195365 31.67° C 55% 1011.8 hPa - - - -
1788194765 31.11° C 57% 1011.9 hPa - - - -
1788194164 31.67° C 56% 1012.1 hPa - - - -
1788193564 31.67° C 55% 1012.2 hPa - - - -
1788192964 31.11° C 56% 1012.3 hPa - - - -
1788192363 31.67° C 56% 1012.3 hPa - - - -
1788191763 31.67° C 56% 1012.5 hPa - - - -
1788191162 31.11° C 57% 1012.8 hPa - - - -
1788190562 31.11° C 57% 1012.9 hPa - - - -
1788189962 31.11° C 57% 1012.9 hPa - - - -
1788189362 31.67° C 55% 1013 hPa - - - -
1788188761 31.67° C 58% 1013 hPa - - - -
1788188161 31.67° C 58% 1012.5 hPa - - - -
1788187561 31.67° C 58% 1012.2 hPa - - - -
1788186960 31.67° C 58% 1012 hPa - - - -
1788186360 31.67° C 59% 1012 hPa - - - -
1788185760 31.67° C 58% 1011.8 hPa - - - -
1788185159 31.67° C 58% 1012 hPa - - - -
1788184559 31.67° C 59% 1012.1 hPa - - - -
1788183959 31.67° C 60% 1012 hPa - - - -
1788183358 31.67° C 61% 1011.8 hPa - - - -

* Rain since midnight (hover to see other rain measurements)
** Current wind speed in m/s (hover to see current wind gust speed)